NOAA 17 DEB, 48707

Orbit data source: Space-Track

NOAA 17 DEB, 48707 is space debris in SSO originally from a launch on Mon, 24 Jun 2002 UTC launched from the Air Force Western Test Range (AFWTR). Debris objects in space refer to the collection of defunct objects orbiting the Earth. Examples of debris include non-operational satellites, rocket bodies, and fragments generated from explosions, collisions, or faulty payload assembly.

Loading next visibility...
Identifier
48707, 2002-032AQ
Orbit
SSO
Country
Flag of USUS
Related business
Manufacturer
Unknown
Mission
Spacecraft
Bus & Motor
Unknown
Mass
Unknown
Launch date (UTC)
2002-06-24 (23 years ago)
Launch vehicle
Unknown
Launch site
Air Force Western Test Range (AFWTR)
Object type
Payload
Rocket body
Debris
Shape & HBR
Unknown shape, 0.1 m
Radar Cross Section
Small (<0.1 m²)

Expand to show TLE details & history
Last TLE update: 2 days ago

TLE from 2 days ago
0 NOAA 17 DEB
1 48707U 02032AQ  25348.07424201  .00015143  00000-0  22178-2 0  9991
2 48707  98.7845  36.0072 0038545 159.2890 200.9889 14.75213490251545
Epoch: 2025-12-14T01:46Z
TLE epoch observation values (Epoch: 2025-12-14T01:46:54.509Z)
Latitude
-0.00004°
Longitude
-73.7123°
Altitude
672.752 km
Speed
7.507 km/s
True Right ascension
02h 24m 01s
True Declination
0° 00' 00"
Sunlit
Object was in full shadow at epoch
Visualization orbit readout
Latitude
Unknown
Longitude
Unknown
Altitude
Unknown
Speed
Unknown
Apparent Right ascension
Unknown
Apparent Declination
Unknown
Sunlit
N/A
Visualization observer readout
Local Sidereal Time
17:05:14
Azimuth
Unknown
Elevation
Unknown
Doppler factor
Unknown
Orbital elements
Apogee altitude
668.62 km
Perigee altitude
614.505 km
Semi-major axis
7,019.7 km
Eccentricity
0.00385
Inclination
98.7845°
RAAN
36.0072°
Arg. of periapsis
159.289°
True anomaly
200.8314°
Mean anomaly
200.9889°
Eccentric anomaly
200.91008°
Mean motion
3.69033 °/min
Orbital period
97.55 mins
BSTAR
0.0022178
Loading maneuver chart data...
Computing Atmospheric mass density...
Loading historical data...
Loading historical data...
Loading historical data...
Loading historical data...
Loading historical data...
Loading historical data...
Loading historical data...

Documentation

Showing up to 5 results
|